| time (UTC) | temp F | wind direction | speed MPH | gust MPH | rain 1hr in | rain 24hr in | rain mn in | humidity % | barometer mb |
| 20260507110520 | 55 | 353 | 1.0 | 3.0 | 0.00 | 0.25 | 0.04 | 87 | 1012.5 |
| 20260507105520 | 55 | 356 | 3.0 | 5.0 | 0.00 | 0.25 | 0.04 | 86 | 1012.4 |
| 20260507104520 | 55 | 356 | 3.0 | 6.0 | 0.00 | 0.25 | 0.04 | 86 | 1012.2 |
| 20260507103520 | 55 | 351 | 4.0 | 7.0 | 0.00 | 0.25 | 0.04 | 87 | 1012.2 |
| 20260507102520 | 55 | 346 | 2.0 | 4.0 | 0.00 | 0.25 | 0.04 | 88 | 1012.1 |
| 20260507101521 | 55 | 353 | 4.0 | 6.0 | 0.00 | 0.25 | 0.04 | 89 | 1012.0 |
| 20260507100520 | 55 | 358 | 2.0 | 5.0 | 0.00 | 0.25 | 0.04 | 90 | 1012.0 |
| 20260507095520 | 55 | 4 | 3.0 | 5.0 | 0.00 | 0.25 | 0.04 | 90 | 1011.9 |
| 20260507094541 | 55 | 350 | 2.0 | 3.0 | 0.00 | 0.25 | 0.04 | 90 | 1011.9 |
| 20260507093520 | 55 | 14 | 1.0 | 3.0 | 0.00 | 0.25 | 0.04 | 90 | 1011.9 |
| 20260507092520 | 55 | 10 | 3.0 | 5.0 | 0.00 | 0.25 | 0.04 | 90 | 1011.6 |
| 20260507091521 | 55 | 10 | 4.0 | 6.0 | 0.00 | 0.25 | 0.04 | 90 | 1011.9 |
| 20260507090521 | 55 | 356 | 2.0 | 4.0 | 0.00 | 0.25 | 0.04 | 90 | 1011.9 |
| 20260507085521 | 55 | 11 | 1.0 | 4.0 | 0.00 | 0.25 | 0.04 | 90 | 1011.8 |
| 20260507084521 | 55 | 351 | 1.0 | 3.0 | 0.00 | 0.25 | 0.04 | 89 | 1011.6 |
| 20260507083521 | 55 | 4 | 4.0 | 6.0 | 0.00 | 0.25 | 0.04 | 89 | 1011.7 |
| 20260507082542 | 55 | 1 | 4.0 | 5.0 | 0.00 | 0.25 | 0.04 | 89 | 1011.6 |
| 20260507081523 | 56 | 353 | 4.0 | 6.0 | 0.00 | 0.25 | 0.04 | 90 | 1011.3 |
| 20260507080523 | 56 | 10 | 5.0 | 8.0 | 0.00 | 0.25 | 0.04 | 91 | 1011.1 |
| 20260507075521 | 56 | 19 | 4.0 | 8.0 | 0.00 | 0.25 | 0.04 | 92 | 1010.9 |
| 20260507074516 | 56 | 11 | 5.0 | 9.0 | 0.00 | 0.25 | 0.04 | 92 | 1011.0 |
| 20260507073522 | 57 | 340 | 4.0 | 7.0 | 0.00 | 0.25 | 0.04 | 91 | 1010.7 |
| 20260507072522 | 57 | 334 | 5.0 | 10.0 | 0.00 | 0.25 | 0.04 | 92 | 1010.8 |
| 20260507071522 | 57 | 335 | 3.0 | 6.0 | 0.00 | 0.25 | 0.04 | 93 | 1010.8 |
| 20260507070523 | 57 | 343 | 4.0 | 6.0 | 0.00 | 0.25 | 0.04 | 94 | 1010.6 |
| 20260507065517 | 57 | 337 | 6.0 | 10.0 | 0.00 | 0.25 | 0.04 | 95 | 1010.7 |
| 20260507064537 | 57 | 332 | 4.0 | 6.0 | 0.00 | 0.25 | 0.04 | 95 | 1010.8 |
| 20260507063518 | 57 | 330 | 5.0 | 7.0 | 0.00 | 0.25 | 0.04 | 95 | 1010.8 |
| 20260507062517 | 57 | 349 | 4.0 | 7.0 | 0.00 | 0.25 | 0.04 | 95 | 1010.6 |
| 20260507061517 | 57 | 357 | 5.0 | 9.0 | 0.00 | 0.25 | 0.04 | 94 | 1010.5 |
| 20260507060518 | 57 | 343 | 6.0 | 11.0 | 0.00 | 0.25 | 0.04 | 94 | 1010.8 |
| 20260507055518 | 57 | 344 | 5.0 | 9.0 | 0.01 | 0.25 | 0.04 | 94 | 1010.6 |
| 20260507054517 | 58 | 334 | 5.0 | 8.0 | 0.01 | 0.25 | 0.04 | 93 | 1010.7 |
| 20260507053519 | 58 | 316 | 7.0 | 12.0 | 0.02 | 0.25 | 0.04 | 91 | 1010.9 |
| 20260507052518 | 59 | 327 | 6.0 | 8.0 | 0.03 | 0.25 | 0.04 | 90 | 1010.3 |
| 20260507051518 | 59 | 328 | 5.0 | 8.0 | 0.04 | 0.25 | 0.04 | 90 | 1010.6 |
| 20260507050518 | 59 | 303 | 6.0 | 8.0 | 0.04 | 0.25 | 0.04 | 89 | 1011.1 |
| 20260507045518 | 60 | 306 | 5.0 | 7.0 | 0.03 | 0.23 | 0.03 | 86 | 1010.8 |
| 20260507044518 | 61 | 309 | 7.0 | 11.0 | 0.03 | 0.23 | 0.03 | 82 | 1010.6 |
| 20260507043538 | 62 | 305 | 6.0 | 11.0 | 0.02 | 0.22 | 0.02 | 78 | 1010.9 |
| 20260507042518 | 63 | 314 | 6.0 | 9.0 | 0.01 | 0.21 | 0.01 | 73 | 1010.9 |
| 20260507041520 | 63 | 320 | 4.0 | 8.0 | 0.00 | 0.20 | 0.00 | 75 | 1010.6 |
| 20260507040519 | 63 | 331 | 5.0 | 8.0 | 0.00 | 0.20 | 0.00 | 75 | 1010.6 |
| 20260507035519 | 63 | 337 | 4.0 | 6.0 | 0.00 | 0.20 | 0.20 | 78 | 1010.2 |
| 20260507034539 | 64 | 324 | 8.0 | 14.0 | 0.00 | 0.20 | 0.20 | 80 | 1010.4 |
| 20260507033516 | 65 | 319 | 5.0 | 9.0 | 0.00 | 0.20 | 0.20 | 80 | 1010.4 |
| 20260507032517 | 65 | 307 | 4.0 | 8.0 | 0.00 | 0.20 | 0.20 | 79 | 1010.4 |
| 20260507031517 | 65 | 319 | 4.0 | 8.0 | 0.00 | 0.20 | 0.20 | 78 | 1009.9 |
| 20260507030540 | 65 | 321 | 5.0 | 8.0 | 0.00 | 0.20 | 0.20 | 76 | 1009.8 |
| 20260507025520 | 66 | 311 | 6.0 | 10.0 | 0.00 | 0.20 | 0.20 | 75 | 1009.9 |
| 20260507024519 | 66 | 313 | 8.0 | 11.0 | 0.00 | 0.20 | 0.20 | 76 | 1009.9 |
| 20260507023517 | 67 | 312 | 8.0 | 12.0 | 0.00 | 0.21 | 0.20 | 77 | 1009.6 |
| 20260507022518 | 67 | 305 | 6.0 | 10.0 | 0.00 | 0.21 | 0.20 | 77 | 1009.6 |
| 20260507021517 | 68 | 316 | 4.0 | 8.0 | 0.00 | 0.21 | 0.20 | 77 | 1009.4 |
| 20260507020518 | 68 | 306 | 4.0 | 7.0 | 0.00 | 0.21 | 0.20 | 78 | 1009.3 |
| 20260507015518 | 68 | 307 | 6.0 | 11.0 | 0.00 | 0.21 | 0.20 | 78 | 1009.3 |
| 20260507014518 | 69 | 178 | 0.0 | 2.0 | 0.00 | 0.21 | 0.20 | 83 | 1009.3 |
| 20260507013539 | 69 | 174 | 1.0 | 3.0 | 0.00 | 0.21 | 0.20 | 82 | 1009.4 |
| 20260507012519 | 69 | 175 | 1.0 | 2.0 | 0.00 | 0.21 | 0.20 | 83 | 1009.5 |
| 20260507011519 | 69 | 141 | 1.0 | 2.0 | 0.00 | 0.21 | 0.20 | 82 | 1009.4 |
| 20260507010539 | 69 | 178 | 2.0 | 4.0 | 0.00 | 0.21 | 0.20 | 82 | 1009.7 |
| 20260507005518 | 69 | 175 | 4.0 | 5.0 | 0.00 | 0.21 | 0.20 | 81 | 1009.4 |
| 20260507004519 | 69 | 175 | 2.0 | 4.0 | 0.00 | 0.21 | 0.20 | 82 | 1009.3 |
| 20260507003519 | 69 | 181 | 1.0 | 3.0 | 0.00 | 0.21 | 0.20 | 82 | 1009.2 |
| 20260507002516 | 69 | 177 | 1.0 | 3.0 | 0.00 | 0.21 | 0.20 | 82 | 1009.0 |
| 20260507001520 | 69 | 168 | 1.0 | 2.0 | 0.00 | 0.21 | 0.20 | 82 | 1009.0 |
| 20260507000519 | 69 | 175 | 0.0 | 2.0 | 0.00 | 0.21 | 0.20 | 82 | 1009.2 |
| 20260506235519 | 69 | 164 | 1.0 | 3.0 | 0.00 | 0.21 | 0.20 | 81 | 1009.0 |
| 20260506234519 | 69 | 172 | 1.0 | 3.0 | 0.00 | 0.21 | 0.20 | 81 | 1008.9 |
| 20260506233520 | 69 | 169 | 2.0 | 6.0 | 0.00 | 0.21 | 0.20 | 81 | 1008.8 |
| 20260506232516 | 69 | 178 | 4.0 | 6.0 | 0.00 | 0.21 | 0.20 | 81 | 1008.7 |
| 20260506231520 | 69 | 176 | 5.0 | 7.0 | 0.00 | 0.21 | 0.20 | 80 | 1008.5 |
| 20260506230520 | 69 | 175 | 5.0 | 9.0 | 0.00 | 0.21 | 0.20 | 80 | 1008.4 |
| 20260506225520 | 69 | 172 | 4.0 | 6.0 | 0.00 | 0.21 | 0.20 | 80 | 1008.5 |
| 20260506224520 | 69 | 182 | 5.0 | 10.0 | 0.00 | 0.21 | 0.20 | 80 | 1008.6 |
| 20260506223519 | 69 | 179 | 7.0 | 13.0 | 0.00 | 0.21 | 0.20 | 80 | 1008.5 |
| 20260506222518 | 69 | 174 | 6.0 | 12.0 | 0.00 | 0.21 | 0.20 | 79 | 1008.4 |
| 20260506221519 | 69 | 178 | 4.0 | 10.0 | 0.00 | 0.21 | 0.20 | 80 | 1008.4 |
| 20260506220518 | 69 | 177 | 8.0 | 14.0 | 0.00 | 0.21 | 0.20 | 80 | 1008.4 |
| 20260506215519 | 69 | 175 | 7.0 | 12.0 | 0.00 | 0.21 | 0.20 | 80 | 1008.3 |
| 20260506214518 | 69 | 177 | 8.0 | 14.0 | 0.00 | 0.21 | 0.20 | 80 | 1008.4 |
| 20260506213518 | 69 | 179 | 8.0 | 17.0 | 0.00 | 0.21 | 0.20 | 79 | 1008.3 |
| 20260506212519 | 69 | 179 | 8.0 | 15.0 | 0.00 | 0.21 | 0.20 | 80 | 1008.2 |
| 20260506211539 | 69 | 178 | 8.0 | 14.0 | 0.00 | 0.21 | 0.20 | 80 | 1008.2 |
| 20260506210518 | 68 | 177 | 8.0 | 17.0 | 0.00 | 0.21 | 0.20 | 80 | 1008.0 |
| 20260506205519 | 69 | 180 | 6.0 | 13.0 | 0.00 | 0.22 | 0.20 | 80 | 1008.1 |
| 20260506204519 | 68 | 202 | 4.0 | 12.0 | 0.00 | 0.23 | 0.20 | 79 | 1007.9 |
| 20260506203519 | 68 | 180 | 7.0 | 13.0 | 0.00 | 0.23 | 0.20 | 81 | 1007.9 |
| 20260506202539 | 68 | 182 | 6.0 | 15.0 | 0.00 | 0.23 | 0.20 | 80 | 1008.0 |
| 20260506201521 | 67 | 180 | 5.0 | 13.0 | 0.00 | 0.24 | 0.20 | 81 | 1008.0 |
| 20260506200519 | 67 | 181 | 7.0 | 15.0 | 0.00 | 0.29 | 0.20 | 81 | 1008.0 |
| 20260506195520 | 67 | 193 | 3.0 | 17.0 | 0.00 | 0.32 | 0.20 | 81 | 1008.1 |
| 20260506194520 | 67 | 187 | 5.0 | 13.0 | 0.00 | 0.33 | 0.20 | 81 | 1008.1 |
| 20260506193520 | 67 | 197 | 5.0 | 13.0 | 0.00 | 0.35 | 0.20 | 81 | 1008.2 |
| 20260506192541 | 67 | 175 | 4.0 | 13.0 | 0.00 | 0.36 | 0.20 | 81 | 1008.3 |
| 20260506191520 | 67 | 192 | 4.0 | 14.0 | 0.00 | 0.40 | 0.20 | 81 | 1008.3 |
| 20260506190517 | 67 | 176 | 7.0 | 13.0 | 0.00 | 0.40 | 0.20 | 82 | 1008.4 |
| 20260506185539 | 66 | 199 | 4.0 | 13.0 | 0.00 | 0.46 | 0.20 | 82 | 1008.6 |
| 20260506184517 | 66 | 174 | 7.0 | 16.0 | 0.00 | 0.47 | 0.20 | 82 | 1008.5 |
| 20260506183518 | 66 | 170 | 6.0 | 20.0 | 0.00 | 0.48 | 0.20 | 82 | 1008.7 |
| 20260506182518 | 66 | 178 | 7.0 | 15.0 | 0.00 | 0.50 | 0.20 | 82 | 1008.8 |
| 20260506181521 | 66 | 171 | 10.0 | 25.0 | 0.00 | 0.52 | 0.20 | 83 | 1008.8 |
| 20260506180518 | 66 | 179 | 8.0 | 16.0 | 0.00 | 0.54 | 0.20 | 83 | 1008.9 |
| 20260506175518 | 65 | 175 | 6.0 | 17.0 | 0.00 | 0.55 | 0.20 | 84 | 1009.0 |
| 20260506174518 | 65 | 175 | 6.0 | 16.0 | 0.00 | 0.55 | 0.20 | 84 | 1009.1 |
| 20260506173519 | 65 | 180 | 6.0 | 13.0 | 0.00 | 0.55 | 0.20 | 85 | 1009.0 |
| 20260506172519 | 65 | 177 | 6.0 | 14.0 | 0.00 | 0.55 | 0.20 | 85 | 1009.1 |
| 20260506171623 | 64 | 180 | 7.0 | 20.0 | 0.00 | 0.55 | 0.20 | 85 | 1009.1 |
| 20260506170519 | 64 | 177 | 8.0 | 21.0 | 0.00 | 0.55 | 0.20 | 86 | 1009.2 |
| 20260506165540 | 64 | 187 | 8.0 | 21.0 | 0.00 | 0.55 | 0.20 | 87 | 1009.2 |
| 20260506164519 | 64 | 186 | 7.0 | 17.0 | 0.06 | 0.55 | 0.20 | 89 | 1009.3 |
| 20260506163519 | 63 | 193 | 8.0 | 21.0 | 0.06 | 0.55 | 0.20 | 90 | 1009.4 |
| 20260506162539 | 63 | 185 | 8.0 | 17.0 | 0.06 | 0.55 | 0.20 | 91 | 1009.4 |
| 20260506161519 | 63 | 183 | 7.0 | 16.0 | 0.08 | 0.55 | 0.20 | 93 | 1009.4 |
| 20260506160517 | 62 | 180 | 6.0 | 15.0 | 0.08 | 0.55 | 0.20 | 94 | 1009.5 |
| 20260506155540 | 62 | 180 | 11.0 | 20.0 | 0.09 | 0.55 | 0.20 | 95 | 1009.5 |
| 20260506154540 | 62 | 178 | 9.0 | 16.0 | 0.03 | 0.49 | 0.14 | 95 | 1009.7 |
| 20260506153520 | 61 | 181 | 9.0 | 16.0 | 0.03 | 0.49 | 0.14 | 95 | 1009.8 |
| 20260506152520 | 61 | 175 | 10.0 | 17.0 | 0.04 | 0.49 | 0.14 | 96 | 1009.5 |
| 20260506151557 | 61 | 179 | 8.0 | 14.0 | 0.04 | 0.48 | 0.12 | 96 | 1010.1 |
| 20260506150518 | 61 | 178 | 6.0 | 13.0 | 0.06 | 0.47 | 0.12 | 95 | 1010.3 |
| 20260506145557 | 61 | 175 | 9.0 | 16.0 | 0.07 | 0.47 | 0.11 | 95 | 1010.3 |
| 20260506144521 | 61 | 174 | 9.0 | 14.0 | 0.08 | 0.47 | 0.11 | 95 | 1010.4 |
| 20260506143522 | 61 | 174 | 9.0 | 16.0 | 0.09 | 0.46 | 0.11 | 96 | 1010.4 |
| 20260506142522 | 61 | 177 | 8.0 | 13.0 | 0.09 | 0.45 | 0.10 | 94 | 1010.4 |
| 20260506141518 | 62 | 179 | 9.0 | 13.0 | 0.07 | 0.44 | 0.08 | 93 | 1010.4 |
| 20260506140518 | 62 | 179 | 9.0 | 13.0 | 0.05 | 0.42 | 0.06 | 91 | 1010.4 |
| 20260506135518 | 62 | 181 | 7.0 | 12.0 | 0.04 | 0.40 | 0.04 | 89 | 1010.5 |
| 20260506134519 | 63 | 181 | 7.0 | 13.0 | 0.03 | 0.39 | 0.03 | 88 | 1010.6 |
| 20260506133519 | 63 | 180 | 5.0 | 10.0 | 0.01 | 0.37 | 0.02 | 86 | 1010.8 |
| 20260506132519 | 64 | 187 | 4.0 | 13.0 | 0.01 | 0.37 | 0.01 | 83 | 1010.9 |
| 20260506131519 | 64 | 180 | 7.0 | 15.0 | 0.01 | 0.36 | 0.01 | 83 | 1010.5 |
| 20260506130519 | 64 | 183 | 8.0 | 14.0 | 0.01 | 0.36 | 0.01 | 83 | 1010.3 |
| 20260506125519 | 64 | 179 | 7.0 | 12.0 | 0.01 | 0.36 | 0.01 | 83 | 1010.1 |
| 20260506124539 | 64 | 178 | 5.0 | 10.0 | 0.01 | 0.36 | 0.01 | 82 | 1010.0 |
| 20260506123519 | 65 | 183 | 9.0 | 19.0 | 0.00 | 0.36 | 0.01 | 80 | 1010.2 |
| 20260506122601 | 65 | 178 | 6.0 | 15.0 | 0.00 | 0.36 | 0.00 | 77 | 1010.3 |
| 20260506121541 | 66 | 166 | 6.0 | 17.0 | 0.00 | 0.36 | 0.00 | 76 | 1010.4 |
| 20260506120518 | 66 | 173 | 5.0 | 13.0 | 0.00 | 0.36 | 0.00 | 75 | 1010.6 |
| 20260506115518 | 66 | 181 | 8.0 | 16.0 | 0.00 | 0.36 | 0.00 | 75 | 1010.3 |
| 20260506114518 | 66 | 175 | 7.0 | 14.0 | 0.00 | 0.36 | 0.00 | 75 | 1010.3 |
| 20260506113519 | 66 | 176 | 7.0 | 15.0 | 0.00 | 0.36 | 0.00 | 74 | 1010.1 |
| 20260506112521 | 66 | 169 | 6.0 | 15.0 | 0.00 | 0.36 | 0.00 | 73 | 1009.9 |
| 20260506111558 | 66 | 173 | 8.0 | 19.0 | 0.00 | 0.36 | 0.00 | 73 | 1009.9 |